IWY521 TUPJ-TDPD

Flight info

Callsign IWY521
Flight time 1h 9m
Altitude 15000
Route SLUGO PJM B520 ANU A312 DOM
Aircraft AT76/M-SDFGHIRWY/LB1

Departure

Time 2026-05-05 19:50
Airport Terrance B. Lettsome International Airport (TUPJ)

Arrival

Time 2026-05-05 20:59
Airport Douglas-Charles Airport (TDPD)
Time Latitude Longitude Altitude Speed Heading
2026-05-05 19:23 18.44595 -64.53692 12 ft 0 kts 114°
2026-05-05 19:44 18.44589 -64.53695 12 ft 1 kts 221°
2026-05-05 19:44 18.44606 -64.53713 12 ft 10 kts 317°
2026-05-05 19:45 18.44646 -64.53753 11 ft 5 kts 313°
2026-05-05 19:45 18.44643 -64.53790 12 ft 12 kts 248°
2026-05-05 19:45 18.44614 -64.53859 13 ft 7 kts 246°
2026-05-05 19:45 18.44573 -64.53948 13 ft 19 kts 239°
2026-05-05 19:46 18.44515 -64.54052 12 ft 11 kts 240°
2026-05-05 19:46 18.44510 -64.54075 12 ft 0 kts 284°
2026-05-05 19:46 18.44521 -64.54101 11 ft 10 kts 300°
2026-05-05 19:47 18.44546 -64.54187 10 ft 13 kts 242°
2026-05-05 19:47 18.44501 -64.54268 12 ft 12 kts 240°
2026-05-05 19:47 18.44459 -64.54347 13 ft 13 kts 241°
2026-05-05 19:47 18.44413 -64.54433 12 ft 14 kts 240°
2026-05-05 19:48 18.44365 -64.54522 12 ft 14 kts 241°
2026-05-05 19:48 18.44319 -64.54609 13 ft 14 kts 240°
2026-05-05 19:48 18.44281 -64.54699 11 ft 10 kts 260°
2026-05-05 19:48 18.44256 -64.54740 10 ft 2 kts 147°
2026-05-05 19:49 18.44257 -64.54718 10 ft 12 kts 75°
2026-05-05 19:49 18.44315 -64.54607 13 ft 47 kts 62°
2026-05-05 19:49 18.44719 -64.53860 23 ft 124 kts 59°
2026-05-05 19:49 18.45200 -64.53099 509 ft 130 kts 54°
2026-05-05 19:50 18.45933 -64.52414 930 ft 149 kts 42°
2026-05-05 19:50 18.46590 -64.51615 1538 ft 147 kts 73°
2026-05-05 19:50 18.46624 -64.50525 2076 ft 153 kts 97°
2026-05-05 19:50 18.46493 -64.49413 2710 ft 151 kts 99°
2026-05-05 19:51 18.46340 -64.48357 3402 ft 142 kts 101°
2026-05-05 19:51 18.46183 -64.47328 3911 ft 150 kts 103°
2026-05-05 19:51 18.46014 -64.46152 4240 ft 168 kts 95°
2026-05-05 19:51 18.45971 -64.44911 4777 ft 172 kts 95°
2026-05-05 19:52 18.45914 -64.43630 5306 ft 177 kts 95°
2026-05-05 19:52 18.45833 -64.42327 5863 ft 179 kts 96°
2026-05-05 19:52 18.45719 -64.41011 6357 ft 182 kts 97°
2026-05-05 19:52 18.45587 -64.39682 6736 ft 183 kts 97°
2026-05-05 19:53 18.45463 -64.38344 7049 ft 184 kts 97°
2026-05-05 19:53 18.45337 -64.36993 7347 ft 187 kts 97°
2026-05-05 19:53 18.45214 -64.35626 7664 ft 188 kts 96°
2026-05-05 19:53 18.45092 -64.34255 7965 ft 188 kts 96°
2026-05-05 19:54 18.44966 -64.32875 8233 ft 190 kts 96°
2026-05-05 19:54 18.44844 -64.31483 8517 ft 191 kts 96°
2026-05-05 19:54 18.44719 -64.30080 8807 ft 193 kts 96°
2026-05-05 19:54 18.44594 -64.28670 9077 ft 194 kts 96°
2026-05-05 19:55 18.44468 -64.27251 9335 ft 196 kts 96°
2026-05-05 19:55 18.44343 -64.25837 9589 ft 197 kts 96°
2026-05-05 19:55 18.44213 -64.24399 9852 ft 198 kts 96°
2026-05-05 19:55 18.44084 -64.22950 10125 ft 200 kts 96°
2026-05-05 19:56 18.43954 -64.21490 10393 ft 201 kts 96°
2026-05-05 19:56 18.43821 -64.20018 10649 ft 203 kts 96°
2026-05-05 19:56 18.43690 -64.18538 10908 ft 203 kts 96°
2026-05-05 19:56 18.43555 -64.17051 11151 ft 205 kts 96°
2026-05-05 19:57 18.43422 -64.15554 11385 ft 206 kts 96°
2026-05-05 19:57 18.43334 -64.14557 11538 ft 207 kts 95°
2026-05-05 19:57 18.43151 -64.12530 11855 ft 208 kts 96°
2026-05-05 19:57 18.43014 -64.11005 12085 ft 210 kts 95°
2026-05-05 19:58 18.42877 -64.09474 12319 ft 211 kts 95°
2026-05-05 19:58 18.42737 -64.07931 12540 ft 213 kts 96°
2026-05-05 19:58 18.42596 -64.06377 12770 ft 214 kts 95°
2026-05-05 19:58 18.42457 -64.04814 13013 ft 215 kts 95°
2026-05-05 19:59 18.42315 -64.03245 13248 ft 216 kts 95°
2026-05-05 19:59 18.42173 -64.01665 13461 ft 217 kts 95°
2026-05-05 19:59 18.42029 -64.00076 13657 ft 218 kts 95°
2026-05-05 19:59 18.41884 -63.98482 13864 ft 220 kts 95°
2026-05-05 20:00 18.41740 -63.96899 14052 ft 220 kts 95°
2026-05-05 20:00 18.41596 -63.95289 14244 ft 221 kts 94°
2026-05-05 20:00 18.41451 -63.93671 14451 ft 222 kts 94°
2026-05-05 20:00 18.41303 -63.92046 14662 ft 223 kts 94°
2026-05-05 20:01 18.41155 -63.90414 14839 ft 226 kts 94°
2026-05-05 20:01 18.41002 -63.88742 14925 ft 233 kts 94°
2026-05-05 20:01 18.40845 -63.87012 14959 ft 241 kts 94°
2026-05-05 20:01 18.40683 -63.85230 14974 ft 248 kts 94°
2026-05-05 20:02 18.40516 -63.83401 14979 ft 254 kts 94°
2026-05-05 20:02 18.40346 -63.81541 14979 ft 257 kts 94°
2026-05-05 20:02 18.40173 -63.79655 14984 ft 260 kts 94°
2026-05-05 20:02 18.39997 -63.77752 14985 ft 262 kts 94°
2026-05-05 20:03 18.39820 -63.75835 14985 ft 264 kts 94°
2026-05-05 20:03 18.39644 -63.73906 14986 ft 265 kts 94°
2026-05-05 20:03 18.39465 -63.71967 14986 ft 267 kts 94°
2026-05-05 20:03 18.39287 -63.70021 14990 ft 268 kts 94°
2026-05-05 20:04 18.39110 -63.68066 14986 ft 268 kts 94°
2026-05-05 20:04 18.38744 -63.66162 14986 ft 266 kts 114°
2026-05-05 20:04 18.37775 -63.64504 14993 ft 267 kts 125°
2026-05-05 20:04 18.36671 -63.62928 14986 ft 268 kts 127°
2026-05-05 20:05 18.35558 -63.61351 14985 ft 268 kts 126°
2026-05-05 20:05 18.34482 -63.59748 14990 ft 268 kts 124°
2026-05-05 20:05 18.33441 -63.58116 14986 ft 268 kts 123°
2026-05-05 20:05 18.32404 -63.56484 14986 ft 268 kts 123°
2026-05-05 20:06 18.31361 -63.54853 14986 ft 269 kts 123°
2026-05-05 20:06 18.30317 -63.53221 14987 ft 269 kts 124°
2026-05-05 20:06 18.29273 -63.51588 14987 ft 269 kts 123°
2026-05-05 20:06 18.28228 -63.49956 14989 ft 269 kts 124°
2026-05-05 20:07 18.27184 -63.48325 14987 ft 269 kts 124°
2026-05-05 20:07 18.26139 -63.46694 14987 ft 269 kts 124°
2026-05-05 20:07 18.25096 -63.45066 14988 ft 268 kts 123°
2026-05-05 20:07 18.24054 -63.43437 14990 ft 268 kts 124°
2026-05-05 20:08 18.23012 -63.41813 14987 ft 268 kts 124°
2026-05-05 20:08 18.21969 -63.40189 14983 ft 268 kts 124°
2026-05-05 20:08 18.20929 -63.38562 14982 ft 268 kts 124°
2026-05-05 20:08 18.19885 -63.36935 14981 ft 268 kts 124°
2026-05-05 20:09 18.18856 -63.35329 14978 ft 268 kts 124°
2026-05-05 20:09 18.17813 -63.33705 14978 ft 268 kts 124°
2026-05-05 20:09 18.16769 -63.32081 14979 ft 268 kts 124°
2026-05-05 20:09 18.15728 -63.30456 14979 ft 268 kts 124°
2026-05-05 20:10 18.14682 -63.28829 14979 ft 268 kts 124°
2026-05-05 20:10 18.13638 -63.27205 14979 ft 268 kts 124°
2026-05-05 20:10 18.12594 -63.25578 14979 ft 268 kts 124°
2026-05-05 20:10 18.11550 -63.23953 14979 ft 268 kts 124°
2026-05-05 20:11 18.10506 -63.22331 14979 ft 268 kts 124°
2026-05-05 20:11 18.09462 -63.20705 14979 ft 268 kts 124°
2026-05-05 20:11 18.08416 -63.19078 14980 ft 268 kts 124°
2026-05-05 20:11 18.07371 -63.17454 14980 ft 268 kts 124°
2026-05-05 20:12 18.06325 -63.15830 14978 ft 268 kts 124°
2026-05-05 20:12 18.05278 -63.14205 14978 ft 268 kts 124°
2026-05-05 20:12 18.04233 -63.12583 14980 ft 268 kts 124°
2026-05-05 20:12 18.03186 -63.10961 14981 ft 268 kts 124°
2026-05-05 20:13 18.02122 -63.09353 14977 ft 269 kts 125°
2026-05-05 20:13 18.01032 -63.07758 14978 ft 269 kts 126°
2026-05-05 20:13 17.99941 -63.06162 14980 ft 269 kts 126°
2026-05-05 20:13 17.98846 -63.04571 14980 ft 269 kts 126°
2026-05-05 20:14 17.97758 -63.02980 14978 ft 268 kts 125°
2026-05-05 20:14 17.96667 -63.01390 14979 ft 269 kts 125°
2026-05-05 20:14 17.95576 -62.99797 14980 ft 268 kts 125°
2026-05-05 20:14 17.94856 -62.98745 14980 ft 268 kts 125°
2026-05-05 20:15 17.93410 -62.96644 14978 ft 268 kts 125°
2026-05-05 20:15 17.92323 -62.95058 14978 ft 267 kts 125°
2026-05-05 20:15 17.91236 -62.93473 14979 ft 268 kts 126°
2026-05-05 20:15 17.90146 -62.91887 14979 ft 268 kts 125°
2026-05-05 20:16 17.89409 -62.90815 14979 ft 268 kts 125°
2026-05-05 20:16 17.87968 -62.88715 14979 ft 268 kts 125°
2026-05-05 20:16 17.87233 -62.87645 14979 ft 267 kts 126°
2026-05-05 20:16 17.86143 -62.86061 14979 ft 267 kts 125°
2026-05-05 20:17 17.85070 -62.84501 14979 ft 267 kts 125°
2026-05-05 20:17 17.83984 -62.82919 14979 ft 267 kts 126°
2026-05-05 20:17 17.82895 -62.81339 14979 ft 267 kts 125°
2026-05-05 20:17 17.81805 -62.79755 14979 ft 268 kts 126°
2026-05-05 20:18 17.80715 -62.78169 14979 ft 268 kts 125°
2026-05-05 20:18 17.79627 -62.76585 14979 ft 268 kts 125°
2026-05-05 20:18 17.78532 -62.75001 14979 ft 268 kts 126°
2026-05-05 20:18 17.77439 -62.73416 14979 ft 268 kts 126°
2026-05-05 20:19 17.76350 -62.71831 14979 ft 268 kts 125°
2026-05-05 20:19 17.75258 -62.70244 14979 ft 268 kts 126°
2026-05-05 20:19 17.74167 -62.68663 14979 ft 268 kts 126°
2026-05-05 20:19 17.73075 -62.67077 14979 ft 268 kts 125°
2026-05-05 20:20 17.71980 -62.65492 14979 ft 268 kts 126°
2026-05-05 20:20 17.70887 -62.63906 14979 ft 268 kts 126°
2026-05-05 20:20 17.69796 -62.62322 14979 ft 268 kts 126°
2026-05-05 20:20 17.68701 -62.60740 14979 ft 268 kts 126°
2026-05-05 20:21 17.67610 -62.59157 14979 ft 268 kts 125°
2026-05-05 20:21 17.66517 -62.57571 14979 ft 268 kts 125°
2026-05-05 20:21 17.65424 -62.55984 14980 ft 268 kts 126°
2026-05-05 20:21 17.64324 -62.54404 14980 ft 268 kts 126°
2026-05-05 20:22 17.63229 -62.52822 14978 ft 268 kts 126°
2026-05-05 20:22 17.62136 -62.51236 14978 ft 268 kts 125°
2026-05-05 20:22 17.61040 -62.49652 14979 ft 268 kts 126°
2026-05-05 20:22 17.59946 -62.48068 14980 ft 268 kts 126°
2026-05-05 20:23 17.58852 -62.46488 14978 ft 268 kts 126°
2026-05-05 20:23 17.57756 -62.44906 14978 ft 268 kts 126°
2026-05-05 20:23 17.56664 -62.43325 14979 ft 268 kts 126°
2026-05-05 20:23 17.55569 -62.41744 14980 ft 268 kts 126°
2026-05-05 20:24 17.54475 -62.40164 14978 ft 268 kts 126°
2026-05-05 20:24 17.53392 -62.38604 14978 ft 268 kts 126°
2026-05-05 20:24 17.52295 -62.37019 14980 ft 268 kts 126°
2026-05-05 20:24 17.51200 -62.35436 14980 ft 268 kts 126°
2026-05-05 20:25 17.50103 -62.33860 14978 ft 268 kts 126°
2026-05-05 20:25 17.49011 -62.32282 14978 ft 268 kts 126°
2026-05-05 20:25 17.47916 -62.30704 14979 ft 268 kts 126°
2026-05-05 20:25 17.46822 -62.29127 14979 ft 268 kts 126°
2026-05-05 20:26 17.45728 -62.27547 14979 ft 268 kts 126°
2026-05-05 20:26 17.44631 -62.25968 14979 ft 268 kts 126°
2026-05-05 20:26 17.43537 -62.24391 14980 ft 268 kts 126°
2026-05-05 20:26 17.42440 -62.22810 14980 ft 268 kts 126°
2026-05-05 20:27 17.41340 -62.21231 14978 ft 268 kts 126°
2026-05-05 20:27 17.40243 -62.19651 14978 ft 268 kts 126°
2026-05-05 20:27 17.39146 -62.18074 14979 ft 268 kts 126°
2026-05-05 20:27 17.38049 -62.16496 14979 ft 268 kts 126°
2026-05-05 20:28 17.36969 -62.14939 14979 ft 268 kts 126°
2026-05-05 20:28 17.35871 -62.13363 14979 ft 268 kts 126°
2026-05-05 20:28 17.34758 -62.11762 14979 ft 268 kts 126°
2026-05-05 20:28 17.33663 -62.10185 14979 ft 268 kts 126°
2026-05-05 20:29 17.32582 -62.08633 14979 ft 268 kts 126°
2026-05-05 20:29 17.31486 -62.07058 14979 ft 268 kts 126°
2026-05-05 20:29 17.30390 -62.05485 14981 ft 268 kts 126°
2026-05-05 20:29 17.29295 -62.03911 14981 ft 267 kts 126°
2026-05-05 20:30 17.28198 -62.02339 14978 ft 267 kts 126°
2026-05-05 20:30 17.27102 -62.00764 14978 ft 267 kts 126°
2026-05-05 20:30 17.26007 -61.99193 14979 ft 267 kts 126°
2026-05-05 20:30 17.24911 -61.97623 14980 ft 267 kts 125°
2026-05-05 20:31 17.23819 -61.96054 14978 ft 267 kts 125°
2026-05-05 20:31 17.22726 -61.94485 14978 ft 267 kts 125°
2026-05-05 20:31 17.21632 -61.92914 14980 ft 267 kts 125°
2026-05-05 20:31 17.20537 -61.91347 14980 ft 267 kts 125°
2026-05-05 20:32 17.19446 -61.89783 14978 ft 267 kts 125°
2026-05-05 20:32 17.18352 -61.88215 14978 ft 267 kts 126°
2026-05-05 20:32 17.17259 -61.86650 14980 ft 267 kts 125°
2026-05-05 20:32 17.16166 -61.85084 14980 ft 267 kts 125°
2026-05-05 20:33 17.15072 -61.83518 14982 ft 267 kts 125°
2026-05-05 20:33 17.13978 -61.81949 14977 ft 267 kts 125°
2026-05-05 20:33 17.12855 -61.80450 14977 ft 264 kts 136°
2026-05-05 20:33 17.11274 -61.79497 14981 ft 265 kts 159°
2026-05-05 20:34 17.09509 -61.78931 14978 ft 266 kts 166°
2026-05-05 20:34 17.07714 -61.78463 14979 ft 266 kts 166°
2026-05-05 20:34 17.05913 -61.77996 14981 ft 267 kts 166°
2026-05-05 20:34 17.04119 -61.77487 14982 ft 267 kts 164°
2026-05-05 20:35 17.02336 -61.76942 14980 ft 267 kts 164°
2026-05-05 20:35 17.00549 -61.76400 14980 ft 268 kts 164°
2026-05-05 20:35 16.98760 -61.75859 14977 ft 268 kts 164°
2026-05-05 20:35 16.96976 -61.75316 14977 ft 267 kts 164°
2026-05-05 20:36 16.95191 -61.74778 14977 ft 267 kts 164°
2026-05-05 20:36 16.93409 -61.74237 14977 ft 267 kts 164°
2026-05-05 20:36 16.91627 -61.73700 14979 ft 267 kts 163°
2026-05-05 20:36 16.89843 -61.73157 14979 ft 267 kts 164°
2026-05-05 20:37 16.88061 -61.72619 14979 ft 267 kts 163°
2026-05-05 20:37 16.86279 -61.72081 14979 ft 266 kts 163°
2026-05-05 20:37 16.84498 -61.71543 14979 ft 266 kts 163°
2026-05-05 20:37 16.82719 -61.71007 14979 ft 266 kts 163°
2026-05-05 20:38 16.80939 -61.70469 14979 ft 266 kts 163°
2026-05-05 20:38 16.79157 -61.69929 14979 ft 267 kts 163°
2026-05-05 20:38 16.77376 -61.69390 14978 ft 267 kts 163°
2026-05-05 20:38 16.75591 -61.68852 14974 ft 267 kts 163°
2026-05-05 20:39 16.73805 -61.68313 14970 ft 267 kts 163°
2026-05-05 20:39 16.72045 -61.67782 14970 ft 267 kts 163°
2026-05-05 20:39 16.70238 -61.67243 14971 ft 267 kts 163°
2026-05-05 20:39 16.68485 -61.66705 14971 ft 266 kts 163°
2026-05-05 20:40 16.66707 -61.66165 14968 ft 266 kts 163°
2026-05-05 20:40 16.64930 -61.65630 14969 ft 266 kts 163°
2026-05-05 20:40 16.63151 -61.65093 14968 ft 266 kts 163°
2026-05-05 20:40 16.61373 -61.64556 14964 ft 266 kts 163°
2026-05-05 20:41 16.59597 -61.64018 14961 ft 266 kts 163°
2026-05-05 20:41 16.57819 -61.63482 14961 ft 266 kts 163°
2026-05-05 20:41 16.56044 -61.62944 14960 ft 266 kts 163°
2026-05-05 20:41 16.54270 -61.62409 14961 ft 266 kts 163°
2026-05-05 20:42 16.52495 -61.61873 14961 ft 266 kts 163°
2026-05-05 20:42 16.50720 -61.61339 14962 ft 266 kts 163°
2026-05-05 20:42 16.48945 -61.60803 14964 ft 266 kts 163°
2026-05-05 20:42 16.47168 -61.60266 14963 ft 266 kts 163°
2026-05-05 20:43 16.45389 -61.59728 14958 ft 266 kts 163°
2026-05-05 20:43 16.43609 -61.59193 14958 ft 266 kts 163°
2026-05-05 20:43 16.41831 -61.58655 14956 ft 266 kts 163°
2026-05-05 20:43 16.40057 -61.58120 14953 ft 266 kts 163°
2026-05-05 20:44 16.38282 -61.57586 14952 ft 266 kts 163°
2026-05-05 20:44 16.36505 -61.57049 14952 ft 266 kts 163°
2026-05-05 20:44 16.34753 -61.56522 14953 ft 265 kts 163°
2026-05-05 20:44 16.32978 -61.55987 14952 ft 266 kts 163°
2026-05-05 20:45 16.29431 -61.54920 14950 ft 265 kts 163°
2026-05-05 20:45 16.27655 -61.54386 14954 ft 265 kts 163°
2026-05-05 20:45 16.25886 -61.53835 14952 ft 265 kts 162°
2026-05-05 20:46 16.24136 -61.53234 14938 ft 263 kts 161°
2026-05-05 20:46 16.22408 -61.52635 14639 ft 263 kts 161°
2026-05-05 20:46 16.20664 -61.52033 14261 ft 265 kts 161°
2026-05-05 20:46 16.18909 -61.51429 13886 ft 267 kts 161°
2026-05-05 20:47 16.17145 -61.50823 13510 ft 267 kts 161°
2026-05-05 20:47 16.15377 -61.50217 13135 ft 268 kts 160°
2026-05-05 20:47 16.13608 -61.49608 12759 ft 268 kts 161°
2026-05-05 20:47 16.11840 -61.49002 12383 ft 268 kts 160°
2026-05-05 20:48 16.10071 -61.48396 12007 ft 267 kts 160°
2026-05-05 20:48 16.08309 -61.47792 11634 ft 267 kts 160°
2026-05-05 20:48 16.06552 -61.47188 11286 ft 265 kts 160°
2026-05-05 20:48 16.04825 -61.46597 11113 ft 256 kts 160°
2026-05-05 20:49 16.03166 -61.46027 11031 ft 247 kts 160°
2026-05-05 20:49 16.01588 -61.45487 10991 ft 237 kts 160°
2026-05-05 20:49 16.00048 -61.44960 10972 ft 229 kts 160°
2026-05-05 20:49 15.98562 -61.44450 10969 ft 222 kts 160°
2026-05-05 20:50 15.97118 -61.43957 10964 ft 216 kts 160°
2026-05-05 20:50 15.95660 -61.43453 10684 ft 224 kts 160°
2026-05-05 20:50 15.94159 -61.42935 10240 ft 236 kts 160°
2026-05-05 20:50 15.92573 -61.42394 9794 ft 244 kts 160°
2026-05-05 20:51 15.90913 -61.41829 9339 ft 250 kts 160°
2026-05-05 20:51 15.89271 -61.41269 8889 ft 253 kts 160°
2026-05-05 20:51 15.87589 -61.40692 8443 ft 255 kts 160°
2026-05-05 20:51 15.85900 -61.40114 7993 ft 256 kts 160°
2026-05-05 20:52 15.84204 -61.39560 7538 ft 254 kts 166°
2026-05-05 20:52 15.82484 -61.39333 7360 ft 245 kts 173°
2026-05-05 20:52 15.80810 -61.39201 7212 ft 237 kts 174°
2026-05-05 20:52 15.79184 -61.39099 7078 ft 231 kts 174°
2026-05-05 20:53 15.77588 -61.39005 7018 ft 232 kts 174°
2026-05-05 20:53 15.75953 -61.38907 6990 ft 238 kts 174°
2026-05-05 20:53 15.74285 -61.38812 6978 ft 242 kts 174°
2026-05-05 20:53 15.72597 -61.38721 6970 ft 244 kts 175°
2026-05-05 20:54 15.70894 -61.38630 6965 ft 246 kts 175°
2026-05-05 20:54 15.69185 -61.38538 6967 ft 246 kts 175°
2026-05-05 20:54 15.67471 -61.38436 6969 ft 247 kts 173°
2026-05-05 20:54 15.65747 -61.38239 6782 ft 249 kts 171°
2026-05-05 20:55 15.64086 -61.38029 6565 ft 228 kts 171°
2026-05-05 20:55 15.62603 -61.37840 6205 ft 203 kts 171°
2026-05-05 20:55 15.61260 -61.37664 5851 ft 187 kts 170°
2026-05-05 20:55 15.60035 -61.37504 5509 ft 169 kts 170°
2026-05-05 20:56 15.58892 -61.37360 5151 ft 161 kts 169°
2026-05-05 20:56 15.57807 -61.37233 4805 ft 151 kts 169°
2026-05-05 20:56 15.56829 -61.37129 4473 ft 134 kts 170°
2026-05-05 20:56 15.55941 -61.37044 4152 ft 124 kts 169°
2026-05-05 20:57 15.55123 -61.36867 3792 ft 118 kts 158°
2026-05-05 20:57 15.54573 -61.36338 3445 ft 109 kts 131°
2026-05-05 20:57 15.54056 -61.35761 2953 ft 112 kts 103°
2026-05-05 20:57 15.53992 -61.34926 2400 ft 122 kts 95°
2026-05-05 20:58 15.53929 -61.34029 1829 ft 129 kts 94°
2026-05-05 20:58 15.53905 -61.33076 1212 ft 134 kts 93°
2026-05-05 20:58 15.53976 -61.32127 716 ft 130 kts 78°
2026-05-05 20:58 15.54261 -61.31244 245 ft 127 kts 71°
2026-05-05 20:59 15.54557 -61.30437 48 ft 108 kts 71°
2026-05-05 20:59 15.54717 -61.29969 47 ft 33 kts 70°
2026-05-05 20:59 15.54758 -61.29822 46 ft 14 kts 83°
2026-05-05 20:59 15.54778 -61.29797 46 ft 4 kts 308°
2026-05-05 21:00 15.54765 -61.29844 46 ft 10 kts 244°
2026-05-05 21:00 15.54725 -61.29907 47 ft 11 kts 211°
2026-05-05 21:00 15.54660 -61.29936 46 ft 2 kts 186°
2026-05-05 21:00 15.54647 -61.29925 46 ft 4 kts 145°
2026-05-05 21:01 15.54634 -61.29924 46 ft 1 kts 213°
2026-05-05 21:01 15.54631 -61.29929 44 ft 0 kts 240°